DW1520 Weather Reports


time (UTC)temp
C
wind
direction
speed
KPH
gust
KPH
rain 1hr
cm
rain 24hr
cm
rain mn
cm
humidity
%
barometer
mb
20260508044006 5 306 0.0 0.0 0.00 0.00 0.00 57 1009.2
20260508043506 5 306 0.0 0.0 0.00 0.00 0.00 56 1009.2
20260508043014 5 306 0.0 0.0 0.00 0.00 0.00 55 1009.3
20260508042506 5 306 0.0 0.0 0.00 0.00 0.00 54 1009.2
20260508042007 5 306 0.0 0.0 0.00 0.00 0.00 54 1009.2
20260508041506 5 306 0.0 0.0 0.00 0.00 0.00 54 1009.2
20260508041006 5 306 0.0 0.0 0.00 0.00 0.00 53 1009.2
20260508040507 5 306 0.0 0.0 0.00 0.00 0.00 53 1009.3
20260508035506 6 306 0.0 0.0 0.00 0.00 0.00 53 1009.3
20260508035006 6 306 0.0 0.0 0.00 0.00 0.00 55 1009.3
20260508034506 6 306 0.0 0.0 0.00 0.00 0.00 57 1009.4
20260508033506 6 306 0.0 0.0 0.00 0.00 0.00 47 1009.3
20260508033006 6 306 0.0 0.0 0.00 0.00 0.00 46 1009.3
20260508032506 6 306 0.0 0.0 0.00 0.00 0.00 46 1009.3
20260508031506 7 306 0.0 0.0 0.00 0.00 0.00 45 1009.3
20260508025506 7 306 0.0 0.0 0.00 0.00 0.00 43 1009.2
20260508025006 7 306 0.0 0.0 0.00 0.00 0.00 42 1009.2
20260508024506 7 306 0.0 0.0 0.00 0.00 0.00 42 1009.2
20260508022506 8 306 0.0 0.0 0.00 0.00 0.00 39 1009.1
20260508022007 8 306 0.0 0.0 0.00 0.00 0.00 38 1008.9
20260508021506 9 306 0.0 0.0 0.00 0.00 0.00 38 1008.9
20260508021006 9 306 0.0 0.0 0.00 0.00 0.00 38 1008.9
20260508020506 9 306 0.0 0.0 0.00 0.00 0.00 38 1008.8
20260508020007 9 306 0.0 0.0 0.00 0.00 0.00 38 1008.8
20260508015506 10 306 0.0 0.0 0.00 0.00 0.00 37 1008.7
20260508015006 10 306 0.0 0.0 0.00 0.00 0.00 37 1008.7
20260508014506 10 306 0.0 0.0 0.00 0.00 0.00 37 1008.7
20260508014006 10 306 0.0 0.0 0.00 0.00 0.00 37 1008.6
20260508013507 10 306 0.0 0.0 0.00 0.00 0.00 35 1008.5
20260508012506 10 306 0.0 0.0 0.00 0.00 0.00 35 1008.5
20260508012006 11 306 0.0 0.0 0.00 0.00 0.00 36 1008.5
20260508011506 11 306 0.0 0.0 0.00 0.00 0.00 35 1008.5
20260508010506 11 306 0.0 0.0 0.00 0.00 0.00 37 1008.4
20260508010006 11 306 0.0 0.0 0.00 0.00 0.00 39 1008.4
20260508005506 11 306 0.0 0.0 0.00 0.00 0.00 37 1008.4
20260508005007 12 306 0.0 0.0 0.00 0.00 0.00 38 1008.5
20260508004505 12 306 0.0 0.0 0.00 0.00 0.00 35 1008.4
20260508004006 12 306 0.0 0.0 0.00 0.00 0.00 34 1008.4
20260508003507 12 306 0.0 0.0 0.00 0.00 0.00 34 1008.4
20260508003008 12 306 0.0 3.2 0.00 0.00 0.00 31 1008.4
20260508002506 12 306 1.6 4.8 0.00 0.00 0.00 31 1008.4
20260508002006 12 306 1.6 3.2 0.00 0.00 0.00 33 1008.4
20260508001506 12 306 1.6 3.2 0.00 0.00 0.00 31 1008.5
20260508001006 12 306 0.0 3.2 0.00 0.00 0.00 31 1008.5
20260508000006 13 310 0.0 4.8 0.00 0.00 0.00 31 1008.5
20260507235506 13 302 1.6 3.2 0.00 0.00 0.00 30 1008.6
20260507235006 13 302 1.6 3.2 0.00 0.00 0.00 29 1008.7
20260507234006 13 302 0.0 4.8 0.00 0.00 0.00 31 1008.7
20260507233507 13 302 3.2 4.8 0.00 0.00 0.00 29 1008.7
20260507233006 13 302 3.2 4.8 0.00 0.00 0.00 29 1008.7
20260507232506 13 290 3.2 4.8 0.00 0.00 0.00 28 1008.6
20260507232006 13 311 1.6 4.8 0.00 0.00 0.00 29 1008.6
20260507231506 13 311 3.2 4.8 0.00 0.00 0.00 30 1008.6
20260507231007 13 311 3.2 11.3 0.00 0.00 0.00 30 1008.7
20260507230506 13 330 1.6 4.8 0.00 0.00 0.00 30 1008.7
20260507230006 13 330 3.2 4.8 0.00 0.00 0.00 29 1008.7
20260507225506 13 330 1.6 4.8 0.00 0.00 0.00 29 1008.8
20260507225007 13 330 3.2 12.9 0.00 0.00 0.00 29 1008.8
20260507224506 13 296 4.8 12.9 0.00 0.00 0.00 29 1008.8
20260507224007 13 306 4.8 11.3 0.00 0.00 0.00 31 1008.8
20260507223006 13 304 4.8 16.1 0.00 0.00 0.00 29 1008.9
20260507221506 13 297 3.2 12.9 0.00 0.00 0.00 29 1009.0
20260507221006 13 297 3.2 14.5 0.00 0.00 0.00 29 1008.9
20260507220006 13 295 6.4 14.5 0.00 0.00 0.00 29 1009.1
20260507215506 13 286 4.8 16.1 0.00 0.00 0.00 30 1009.1
20260507215006 13 283 3.2 12.9 0.00 0.00 0.00 29 1009.0
20260507214506 13 265 1.6 3.2 0.00 0.00 0.00 27 1008.9
20260507214006 13 313 3.2 9.7 0.00 0.00 0.00 30 1009.0
20260507213506 13 224 4.8 9.7 0.00 0.00 0.00 28 1009.0
20260507213006 13 309 3.2 12.9 0.00 0.00 0.00 29 1009.0
20260507212505 13 298 4.8 12.9 0.00 0.00 0.00 30 1009.0
20260507212006 13 313 3.2 12.9 0.00 0.00 0.00 28 1009.0
20260507211507 13 297 4.8 14.5 0.00 0.00 0.00 30 1009.0
20260507211006 13 347 3.2 8.0 0.00 0.00 0.00 29 1009.0
20260507210506 13 308 3.2 11.3 0.00 0.00 0.00 31 1009.1
20260507210006 13 293 4.8 12.9 0.00 0.00 0.00 32 1009.1
20260507205006 14 225 3.2 8.0 0.00 0.00 0.00 28 1009.1
20260507204506 13 218 3.2 9.7 0.00 0.00 0.00 31 1009.1
20260507204006 13 315 1.6 8.0 0.00 0.00 0.00 29 1009.2
20260507203506 13 312 3.2 8.0 0.00 0.00 0.00 30 1009.3
20260507203007 13 329 3.2 8.0 0.00 0.00 0.00 29 1009.3
20260507202006 13 329 3.2 11.3 0.00 0.00 0.00 29 1009.4
20260507201505 13 218 4.8 14.5 0.00 0.00 0.00 29 1009.5
20260507201007 13 303 3.2 8.0 0.00 0.00 0.00 30 1009.4
20260507200506 13 249 3.2 8.0 0.00 0.00 0.00 33 1009.4
20260507200006 13 286 3.2 14.5 0.00 0.00 0.00 30 1009.5
20260507195006 13 261 3.2 4.8 0.00 0.00 0.00 30 1009.6
20260507194506 13 302 4.8 11.3 0.00 0.00 0.00 31 1009.7
20260507194006 13 332 3.2 8.0 0.00 0.00 0.00 33 1009.7
20260507193506 13 311 3.2 4.8 0.00 0.00 0.00 35 1009.6
20260507193006 13 308 4.8 8.0 0.00 0.00 0.00 31 1009.7
20260507192506 13 292 4.8 11.3 0.00 0.00 0.00 32 1009.6
20260507192006 13 303 3.2 4.8 0.00 0.00 0.00 33 1009.6
20260507191505 13 217 3.2 9.7 0.00 0.00 0.00 31 1009.7
20260507191007 13 304 3.2 9.7 0.00 0.00 0.00 34 1009.7
20260507190506 13 333 3.2 12.9 0.00 0.00 0.00 31 1009.7
20260507190006 13 210 3.2 8.0 0.00 0.00 0.00 34 1009.9
20260507185506 13 288 3.2 4.8 0.00 0.00 0.00 34 1009.9
20260507185006 13 302 1.6 4.8 0.00 0.00 0.00 34 1009.9
20260507184505 12 303 1.6 11.3 0.00 0.00 0.00 36 1009.8
20260507184006 12 313 3.2 14.5 0.00 0.00 0.00 36 1009.9
20260507183506 12 300 4.8 14.5 0.00 0.00 0.00 36 1009.9
20260507183006 12 238 3.2 8.0 0.00 0.00 0.00 36 1010.0
20260507182506 12 310 3.2 12.9 0.00 0.00 0.00 35 1010.0
20260507182006 12 1 3.2 19.3 0.00 0.00 0.00 35 1010.1
20260507181006 12 302 3.2 11.3 0.00 0.00 0.00 36 1010.1
20260507180506 12 306 6.4 14.5 0.00 0.00 0.00 38 1010.2
20260507180005 12 297 4.8 8.0 0.00 0.00 0.00 37 1010.3
20260507175506 12 301 3.2 8.0 0.00 0.00 0.00 37 1010.3
20260507175006 12 246 3.2 12.9 0.00 0.00 0.00 35 1010.4
20260507174506 12 319 3.2 4.8 0.00 0.00 0.00 36 1010.5
20260507174006 12 323 3.2 4.8 0.00 0.00 0.00 35 1010.5
20260507173506 12 224 3.2 4.8 0.00 0.00 0.00 41 1010.5
20260507173006 11 309 1.6 4.8 0.00 0.00 0.00 39 1010.6
20260507172505 11 328 1.6 4.8 0.00 0.00 0.00 38 1010.6
20260507172006 11 325 3.2 8.0 0.00 0.00 0.00 39 1010.6
20260507170005 11 202 3.2 8.0 0.00 0.00 0.00 38 1010.8
20260507165505 11 344 1.6 4.8 0.00 0.00 0.00 42 1010.9
20260507165006 11 347 1.6 4.8 0.00 0.00 0.00 40 1011.0
20260507164506 11 314 3.2 8.0 0.00 0.00 0.00 42 1011.0
20260507164007 11 294 3.2 9.7 0.00 0.00 0.00 45 1011.0
20260507163506 11 296 3.2 8.0 0.00 0.00 0.00 42 1011.1
20260507163009 11 239 3.2 9.7 0.00 0.00 0.00 45 1011.0
20260507162506 11 348 3.2 9.7 0.00 0.00 0.00 45 1011.1
20260507162006 10 324 1.6 4.8 0.00 0.00 0.00 45 1011.1
20260507161506 10 324 3.2 8.0 0.00 0.00 0.00 42 1011.1
20260507161006 11 306 4.8 8.0 0.00 0.00 0.00 42 1011.3
20260507160506 11 304 1.6 8.0 0.00 0.00 0.00 46 1011.3
20260507160005 11 49 3.2 8.0 0.00 0.00 0.00 47 1011.2
20260507155506 10 324 1.6 4.8 0.00 0.00 0.00 47 1011.2
20260507155006 10 324 3.2 4.8 0.00 0.00 0.00 47 1011.2
20260507154505 10 328 1.6 4.8 0.00 0.00 0.00 47 1011.3
20260507154008 10 330 1.6 8.0 0.00 0.00 0.00 48 1011.2
20260507153505 10 301 3.2 9.7 0.00 0.00 0.00 50 1011.2
20260507153006 10 298 3.2 4.8 0.00 0.00 0.00 48 1011.2
20260507152506 10 298 3.2 4.8 0.00 0.00 0.00 49 1011.1
20260507152006 10 333 1.6 4.8 0.00 0.00 0.00 52 1011.2
20260507151506 10 355 3.2 4.8 0.00 0.00 0.00 49 1011.3
20260507151006 10 338 1.6 4.8 0.00 0.00 0.00 51 1011.3
20260507150506 10 325 3.2 4.8 0.00 0.00 0.00 51 1011.3
20260507150006 10 321 1.6 4.8 0.00 0.00 0.00 52 1011.4
20260507145505 9 314 1.6 8.0 0.00 0.00 0.00 53 1011.4
20260507145006 9 298 3.2 11.3 0.00 0.00 0.00 54 1011.4
20260507144506 9 11 0.0 4.8 0.00 0.00 0.00 54 1011.4
20260507144006 8 12 0.0 4.8 0.00 0.00 0.00 57 1011.5
20260507143506 8 317 1.6 4.8 0.00 0.00 0.00 57 1011.6
20260507143006 8 296 3.2 4.8 0.00 0.00 0.00 59 1011.6
20260507142506 8 309 1.6 4.8 0.00 0.00 0.00 61 1011.7
20260507142006 8 299 1.6 4.8 0.00 0.00 0.00 62 1011.7
20260507141505 7 313 3.2 4.8 0.00 0.00 0.00 62 1011.8
20260507140006 7 307 1.6 4.8 0.00 0.00 0.00 64 1011.9
20260507134506 6 309 1.6 4.8 0.00 0.00 0.00 71 1012.1
20260507134005 5 302 0.0 1.6 0.00 0.00 0.00 73 1012.0
20260507133006 5 302 0.0 0.0 0.00 0.00 0.00 76 1012.2
20260507132506 4 302 0.0 0.0 0.00 0.00 0.00 78 1012.2
20260507132006 4 302 0.0 1.6 0.00 0.00 0.00 80 1012.3
20260507131005 3 302 0.0 1.6 0.00 0.00 0.00 80 1012.2
20260507130006 3 302 1.6 3.2 0.00 0.00 0.00 84 1012.3
20260507125513 2 302 0.0 1.6 0.00 0.00 0.00 83 1012.3
20260507125006 2 302 0.0 1.6 0.00 0.00 0.00 82 1012.3
20260507124506 2 302 0.0 1.6 0.00 0.00 0.00 83 1012.4
20260507124005 2 302 0.0 0.0 0.00 0.00 0.00 82 1012.4
20260507123506 2 302 0.0 0.0 0.00 0.00 0.00 82 1012.4
20260507123007 2 302 0.0 0.0 0.00 0.00 0.00 82 1012.4
20260507122505 2 302 0.0 0.0 0.00 0.00 0.00 83 1012.4
20260507122006 2 302 0.0 0.0 0.00 0.00 0.00 84 1012.3
20260507121505 2 302 0.0 0.0 0.00 0.00 0.00 84 1012.3
20260507121006 1 302 0.0 0.0 0.00 0.00 0.00 85 1012.3
20260507120505 1 302 0.0 0.0 0.00 0.00 0.00 85 1012.2
20260507120006 1 302 0.0 0.0 0.00 0.00 0.00 85 1012.2
20260507115506 1 302 0.0 0.0 0.00 0.00 0.00 85 1012.2
20260507115006 1 302 0.0 0.0 0.00 0.00 0.00 85 1012.2
20260507114506 1 302 0.0 0.0 0.00 0.00 0.00 85 1012.3
20260507114005 1 302 0.0 0.0 0.00 0.00 0.00 86 1012.3
20260507113506 1 302 0.0 0.0 0.00 0.00 0.00 86 1012.3
20260507113006 0 302 0.0 0.0 0.00 0.00 0.00 86 1012.3
20260507112505 0 302 0.0 0.0 0.00 0.00 0.00 86 1012.3
20260507112005 0 302 0.0 0.0 0.00 0.00 0.00 85 1012.3
20260507111507 0 302 0.0 0.0 0.00 0.00 0.00 85 1012.3
20260507110506 0 302 0.0 0.0 0.00 0.00 0.00 85 1012.2
20260507105505 0 302 0.0 0.0 0.00 0.00 0.00 86 1012.3
20260507105006 0 302 0.0 0.0 0.00 0.00 0.00 86 1012.3
20260507104506 0 302 0.0 0.0 0.00 0.00 0.00 86 1012.3
20260507104005 0 302 0.0 0.0 0.00 0.00 0.00 86 1012.3
20260507103505 0 302 0.0 0.0 0.00 0.00 0.00 85 1012.3
20260507103006 0 302 0.0 0.0 0.00 0.00 0.00 85 1012.3
20260507102505 0 302 0.0 0.0 0.00 0.00 0.00 85 1012.4
20260507102007 0 302 0.0 0.0 0.00 0.00 0.00 85 1012.4
20260507101507 0 302 0.0 0.0 0.00 0.00 0.00 85 1012.4
20260507100506 0 302 0.0 0.0 0.00 0.00 0.00 84 1012.5
20260507100005 0 302 0.0 0.0 0.00 0.00 0.00 84 1012.5
20260507095506 0 302 0.0 0.0 0.00 0.00 0.00 84 1012.5
20260507094006 0 302 0.0 0.0 0.00 0.00 0.00 83 1012.6
20260507093506 0 302 0.0 0.0 0.00 0.00 0.00 82 1012.6
20260507093005 0 302 0.0 0.0 0.00 0.00 0.00 82 1012.5
20260507092506 0 302 0.0 0.0 0.00 0.00 0.00 82 1012.6
20260507092006 0 302 0.0 0.0 0.00 0.00 0.00 82 1012.6
20260507091505 0 302 0.0 0.0 0.00 0.00 0.00 82 1012.6
20260507090505 0 302 0.0 0.0 0.00 0.00 0.00 81 1012.7
20260507090006 0 302 0.0 0.0 0.00 0.00 0.00 81 1012.6
20260507085506 0 302 0.0 0.0 0.00 0.00 0.00 81 1012.6
20260507085006 0 302 0.0 0.0 0.00 0.00 0.00 82 1012.7
20260507084006 0 302 0.0 0.0 0.00 0.00 0.00 81 1012.7
20260507083007 0 302 0.0 0.0 0.00 0.00 0.00 82 1012.8
20260507082505 0 302 0.0 1.6 0.00 0.00 0.00 81 1012.9
20260507082005 0 302 0.0 0.0 0.00 0.00 0.00 81 1012.9
20260507081506 0 302 0.0 0.0 0.00 0.00 0.00 81 1012.9
20260507081006 0 302 0.0 0.0 0.00 0.00 0.00 80 1013.0
20260507080506 0 302 0.0 0.0 0.00 0.00 0.00 80 1013.0
20260507080005 0 302 0.0 0.0 0.00 0.00 0.00 80 1012.9
20260507075505 0 302 0.0 0.0 0.00 0.00 0.00 79 1012.9
20260507075005 0 302 0.0 0.0 0.00 0.00 0.00 80 1012.9
20260507074506 0 302 0.0 0.0 0.00 0.00 0.00 79 1013.0
20260507073505 1 302 0.0 0.0 0.00 0.00 0.00 79 1013.1
20260507073006 1 302 0.0 0.0 0.00 0.00 0.00 79 1013.2
20260507071506 1 302 0.0 0.0 0.00 0.00 0.00 81 1013.3
20260507071005 1 302 0.0 0.0 0.00 0.00 0.00 81 1013.3
20260507070506 1 302 0.0 0.0 0.00 0.00 0.00 81 1013.3
20260507070010 1 302 0.0 0.0 0.00 0.00 0.00 82 1013.4
20260507065006 1 302 0.0 0.0 0.00 0.00 0.00 83 1013.5
20260507064505 0 302 0.0 0.0 0.00 0.00 0.00 83 1013.6
20260507064006 0 302 0.0 0.0 0.00 0.00 0.00 83 1013.6
20260507063506 0 302 0.0 0.0 0.00 0.00 0.00 84 1013.6
20260507063005 0 302 0.0 0.0 0.00 0.00 0.00 85 1013.6
20260507062506 0 302 0.0 0.0 0.00 0.00 0.00 85 1013.6
20260507062005 0 302 0.0 0.0 0.00 0.00 0.00 85 1013.6
20260507061006 0 302 0.0 0.0 0.00 0.00 0.00 84 1013.7
20260507060505 0 302 0.0 0.0 0.00 0.00 0.00 85 1013.7
20260507055506 0 302 0.0 0.0 0.00 0.00 0.00 85 1013.7
20260507055006 0 302 0.0 0.0 0.00 0.00 0.00 85 1013.7
20260507054505 0 302 0.0 0.0 0.00 0.00 0.00 85 1013.7
20260507054005 0 302 0.0 0.0 0.00 0.00 0.00 84 1013.8
20260507053505 0 302 0.0 0.0 0.00 0.00 0.00 84 1013.8
20260507053005 0 302 0.0 0.0 0.00 0.00 0.00 84 1013.8
20260507052506 0 302 0.0 0.0 0.00 0.00 0.00 83 1013.9
20260507052006 0 302 0.0 0.0 0.00 0.00 0.00 82 1013.9
20260507051505 0 302 0.0 0.0 0.00 0.00 0.00 81 1013.9
20260507051006 0 302 0.0 0.0 0.00 0.00 0.00 81 1013.9
20260507050505 0 302 0.0 0.0 0.00 0.00 0.00 80 1013.9
20260507045505 1 302 0.0 0.0 0.00 0.00 0.00 79 1013.9
20260507045005 1 302 0.0 0.0 0.00 0.00 0.00 79 1013.9
20260507044505 1 302 0.0 0.0 0.00 0.00 0.00 78 1013.9